DW9996 Weather Reports


Display with metric or nautical units.
time (UTC)temp
F
wind
direction
speed
MPH
gust
MPH
rain 1hr
in
rain 24hr
in
rain mn
in
humidity
%
barometer
mb
20260901113021 49 311 2.0 4.0 0.00 0.00 0.00 72 1009.1
20260901111518 50 323 2.0 6.0 0.00 0.00 0.00 72 1009.1
20260901110028 47 11 3.0 5.0 0.00 0.00 0.00 75 1008.8
20260901104514 44 311 1.0 3.0 0.00 0.00 0.00 74 1009.1
20260901103016 46 304 2.0 4.0 0.00 0.00 0.00 71 1009.1
20260901101519 49 304 1.0 2.0 0.00 0.00 0.00 68 1009.2
20260901100002 52 315 1.0 3.0 0.00 0.00 0.00 65 1009.1
20260901094600 54 355 1.0 3.0 0.00 0.00 0.00 64 1009.2
20260901093105 54 39 1.0 3.0 0.00 0.00 0.00 63 1009.2
20260901091607 54 40 1.0 3.0 0.00 0.00 0.00 62 1009.2
20260901090051 55 80 1.0 3.0 0.00 0.00 0.00 60 1009.4
20260901084548 56 87 0.0 0.0 0.00 0.00 0.00 59 1009.4
20260901083046 56 87 0.0 3.0 0.00 0.00 0.00 58 1009.3
20260901081544 57 188 0.0 0.0 0.00 0.00 0.00 57 1009.4
20260901080043 57 190 0.0 3.0 0.00 0.00 0.00 57 1009.5
20260901074538 58 190 1.0 3.0 0.00 0.00 0.00 55 1009.6
20260901073043 59 152 0.0 0.0 0.00 0.00 0.00 53 1009.5
20260901071535 59 152 1.0 2.0 0.00 0.00 0.00 54 1009.6
20260901070039 59 146 1.0 3.0 0.00 0.00 0.00 54 1009.6
20260901064541 59 166 2.0 3.0 0.00 0.00 0.00 53 1009.6
20260901063036 59 146 1.0 3.0 0.00 0.00 0.00 53 1009.7
20260901061530 59 144 0.0 3.0 0.00 0.00 0.00 53 1009.6
20260901060030 59 128 1.0 8.0 0.00 0.00 0.00 53 1009.7
20260901054528 59 138 2.0 5.0 0.00 0.00 0.00 53 1009.8
20260901053027 59 161 2.0 5.0 0.00 0.00 0.00 53 1009.9
20260901051528 59 161 2.0 4.0 0.00 0.00 0.00 49 1010.0
20260901050027 61 159 0.0 0.0 0.00 0.00 0.00 47 1010.0
20260901044526 62 159 0.0 0.0 0.00 0.00 0.00 45 1010.0
20260901043026 62 159 0.0 3.0 0.00 0.00 0.00 46 1010.0
20260901041526 61 164 0.0 0.0 0.00 0.00 0.00 46 1010.1
20260901040034 62 164 0.0 0.0 0.00 0.00 0.00 44 1010.1
20260901034524 64 165 1.0 2.0 0.00 0.00 0.00 43 1010.0
20260901033025 65 182 0.0 0.0 0.00 0.00 0.00 43 1009.8
20260901031524 64 182 0.0 0.0 0.00 0.00 0.00 44 1009.8
20260901030023 64 182 0.0 2.0 0.00 0.00 0.00 45 1009.7
20260901024528 66 192 1.0 2.0 0.00 0.00 0.00 43 1009.6
20260901023023 67 170 0.0 0.0 0.00 0.00 0.00 42 1009.5
20260901021522 68 170 0.0 0.0 0.00 0.00 0.00 40 1009.6
20260901020021 69 170 0.0 2.0 0.00 0.00 0.00 38 1009.6
20260901014520 70 181 1.0 4.0 0.00 0.00 0.00 37 1009.7
20260901013022 73 191 2.0 4.0 0.00 0.00 0.00 34 1009.6
20260901011521 74 223 2.0 6.0 0.00 0.00 0.00 34 1009.8
20260901010022 74 211 3.0 7.0 0.00 0.00 0.00 33 1009.8
20260901004531 75 277 3.0 7.0 0.00 0.00 0.00 33 1009.8
20260901003023 76 200 3.0 6.0 0.00 0.00 0.00 33 1009.9
20260901001524 76 214 5.0 9.0 0.00 0.00 0.00 33 1009.8
20260901000017 76 234 6.0 9.0 0.00 0.00 0.00 33 1009.8
20260831234517 76 266 3.0 13.0 0.00 0.00 0.00 33 1010.0
20260831233015 76 266 2.0 16.0 0.00 0.00 0.00 33 1010.0
20260831231515 76 238 2.0 7.0 0.00 0.00 0.00 34 1010.1
20260831230015 76 193 5.0 11.0 0.00 0.00 0.00 33 1010.2
20260831224514 76 282 2.0 7.0 0.00 0.00 0.00 33 1010.2
20260831223013 75 325 3.0 12.0 0.00 0.00 0.00 33 1010.4
20260831221523 76 194 3.0 7.0 0.00 0.00 0.00 34 1010.5
20260831220011 76 228 4.0 11.0 0.00 0.00 0.00 33 1010.4
20260831214529 76 248 4.0 11.0 0.00 0.00 0.00 33 1010.6
20260831213006 75 241 2.0 8.0 0.00 0.00 0.00 35 1010.6
20260831211505 75 340 4.0 9.0 0.00 0.00 0.00 34 1010.8
20260831210006 74 197 2.0 9.0 0.00 0.00 0.00 35 1010.7
20260831204504 74 302 5.0 11.0 0.00 0.00 0.00 35 1010.9
20260831203002 74 220 5.0 11.0 0.00 0.00 0.00 36 1011.1
20260831201505 74 248 5.0 11.0 0.00 0.00 0.00 36 1011.2
20260831200105 74 232 4.0 12.0 0.00 0.00 0.00 36 1011.1
20260831194557 73 228 5.0 9.0 0.00 0.00 0.00 37 1011.2
20260831193055 71 207 2.0 9.0 0.00 0.00 0.00 40 1011.4
20260831191554 72 296 3.0 10.0 0.00 0.00 0.00 41 1011.5
20260831190111 71 306 4.0 14.0 0.00 0.00 0.00 40 1011.9
20260831184555 71 325 5.0 12.0 0.00 0.00 0.00 40 1012.0
20260831183059 71 327 5.0 11.0 0.00 0.00 0.00 40 1012.2
20260831181550 70 293 5.0 11.0 0.00 0.00 0.00 42 1012.3
20260831180047 70 355 4.0 10.0 0.00 0.00 0.00 43 1012.5
20260831174545 69 306 6.0 15.0 0.00 0.00 0.00 44 1012.4
20260831173042 69 315 3.0 12.0 0.00 0.00 0.00 46 1012.4
20260831171543 68 332 5.0 17.0 0.00 0.00 0.00 46 1012.3
20260831170038 68 315 5.0 16.0 0.00 0.00 0.00 46 1012.4
20260831164538 68 333 6.0 12.0 0.00 0.00 0.00 47 1012.4
20260831163041 67 327 5.0 13.0 0.00 0.00 0.00 50 1012.3
20260831161533 65 308 5.0 14.0 0.00 0.00 0.00 53 1012.5
20260831160038 65 297 5.0 14.0 0.00 0.00 0.00 53 1012.3
20260831154533 65 333 6.0 14.0 0.00 0.00 0.00 51 1012.3
20260831153032 65 306 6.0 13.0 0.00 0.00 0.00 51 1012.4
20260831151525 64 305 4.0 13.0 0.00 0.00 0.00 50 1012.2
20260831150024 63 297 4.0 11.0 0.00 0.00 0.00 50 1012.1
20260831144521 61 302 5.0 11.0 0.00 0.00 0.00 53 1011.9
20260831143021 59 281 4.0 10.0 0.00 0.00 0.00 55 1011.8
20260831141508 58 288 5.0 12.0 0.00 0.00 0.00 57 1011.6
20260831140004 56 295 2.0 7.0 0.00 0.00 0.00 59 1011.4
20260831134505 56 277 3.0 9.0 0.00 0.00 0.00 59 1011.3
20260831133059 55 287 4.0 8.0 0.00 0.00 0.00 62 1011.0
20260831131600 53 287 5.0 12.0 0.00 0.00 0.00 64 1010.8
20260831124557 52 296 5.0 12.0 0.00 0.00 0.00 64 1010.4
20260831123051 53 290 5.0 12.0 0.00 0.00 0.00 63 1010.1
20260831121552 53 298 6.0 14.0 0.00 0.00 0.00 62 1010.0
20260831120056 53 303 7.0 14.0 0.00 0.00 0.00 63 1009.9
20260831114549 53 288 9.0 15.0 0.00 0.00 0.00 63 1010.0